Volver al catálogo

CZ-2C DEB

ActivoPO
NORAD 40265·DEBRIS·🇨🇳 China

Lanzado Sep 28, 2014 desde Jiuquan Satellite Launch Center

Loading…

Próximos Pases (próximas 24 horas)

TLE

ActualizadoSource: Space-Track

Época: Sep 14, 2026, 02:38 UTC

1 40265U 14059E   26257.11040374  .00001340  00000-0  43878-3 0  9999
2 40265  97.9200 323.0754 0161531 206.9640 152.3086 14.32793365620897

Sigue CZ-2C DEB en tiempo real con AllMySat

Download on the App Store